Location: Arrodets-la-Barthe
(43.0306°N, 0.2829°E)
Time: 18:35:29
(UTC+00:00)

X-37B - Pass Details

Date: 24 October 2021
Orbit: 330 x 341 km, 45.0° (Epoch: 20 November)

Event Time Altitude Azimuth Distance (km) Brightness Sun altitude
Rises 17:37:43 0° 284° (WNW) 2,127 5.7 -7.2°
Reaches altitude 10° 17:39:44 10° 287° (WNW) 1,286 4.4 -7.6°
Maximum altitude 17:42:37 73° 12° (NNE) 360 0.3 -8.1°
Enters shadow 17:45:16 12° 98° (E) 1,193 2.4 -8.6°
